| time (UTC) | temp F | wind direction | speed MPH | gust MPH | rain 1hr in | rain 24hr in | rain mn in | humidity % | barometer mb |
| 20260901134031 | 74 | 203 | 0.0 | 0.0 | 0.00 | 0.78 | 0.04 | 90 | 1012.6 |
| 20260901133529 | 74 | 203 | 0.0 | 0.0 | 0.00 | 0.79 | 0.04 | 89 | 1012.6 |
| 20260901133023 | 73 | 203 | 0.0 | 0.0 | 0.00 | 0.80 | 0.04 | 88 | 1012.6 |
| 20260901132523 | 73 | 203 | 0.0 | 0.0 | 0.00 | 0.80 | 0.04 | 87 | 1012.8 |
| 20260901132021 | 72 | 202 | 0.0 | 0.0 | 0.00 | 0.81 | 0.04 | 87 | 1012.8 |
| 20260901131520 | 72 | 202 | 0.0 | 0.0 | 0.00 | 0.82 | 0.04 | 87 | 1012.8 |
| 20260901131017 | 72 | 202 | 0.0 | 0.0 | 0.00 | 0.84 | 0.04 | 86 | 1012.7 |
| 20260901130516 | 72 | 202 | 0.0 | 0.0 | 0.00 | 0.86 | 0.04 | 86 | 1012.7 |
| 20260901130017 | 72 | 202 | 0.0 | 0.0 | 0.00 | 0.89 | 0.04 | 87 | 1012.7 |
| 20260901125513 | 72 | 202 | 0.0 | 0.0 | 0.00 | 0.91 | 0.04 | 87 | 1012.6 |
| 20260901125013 | 71 | 202 | 0.0 | 0.0 | 0.00 | 0.96 | 0.04 | 87 | 1012.7 |
| 20260901124512 | 71 | 202 | 0.0 | 0.0 | 0.00 | 0.99 | 0.04 | 87 | 1012.7 |
| 20260901124010 | 71 | 202 | 0.0 | 0.0 | 0.00 | 1.02 | 0.04 | 87 | 1012.7 |
| 20260901123508 | 71 | 202 | 0.0 | 0.0 | 0.01 | 1.05 | 0.04 | 87 | 1012.8 |
| 20260901123007 | 71 | 202 | 0.0 | 0.0 | 0.01 | 1.06 | 0.04 | 87 | 1012.8 |
| 20260901122505 | 71 | 202 | 0.0 | 0.0 | 0.01 | 1.07 | 0.04 | 87 | 1012.9 |
| 20260901122006 | 70 | 197 | 0.0 | 0.0 | 0.01 | 1.07 | 0.04 | 87 | 1012.9 |
| 20260901121503 | 70 | 198 | 0.0 | 0.0 | 0.01 | 1.07 | 0.04 | 87 | 1012.8 |
| 20260901121007 | 70 | 199 | 0.0 | 0.0 | 0.01 | 1.07 | 0.04 | 87 | 1012.8 |
| 20260901120504 | 70 | 195 | 0.0 | 0.0 | 0.01 | 1.07 | 0.04 | 87 | 1012.8 |
| 20260901120005 | 70 | 197 | 0.0 | 0.0 | 0.01 | 1.07 | 0.04 | 87 | 1012.7 |
| 20260901115503 | 70 | 198 | 0.0 | 0.0 | 0.01 | 1.08 | 0.04 | 87 | 1012.7 |
| 20260901115002 | 70 | 199 | 0.0 | 0.0 | 0.01 | 1.08 | 0.04 | 87 | 1012.7 |
| 20260901114502 | 70 | 200 | 0.0 | 0.0 | 0.01 | 1.09 | 0.04 | 87 | 1012.6 |
| 20260901114003 | 70 | 200 | 0.0 | 0.0 | 0.01 | 1.09 | 0.04 | 87 | 1012.5 |
| 20260901113503 | 69 | 200 | 0.0 | 0.0 | 0.00 | 1.08 | 0.03 | 88 | 1012.6 |
| 20260901113002 | 69 | 200 | 0.0 | 0.0 | 0.00 | 1.08 | 0.03 | 88 | 1012.5 |
| 20260901112503 | 69 | 200 | 0.0 | 0.0 | 0.00 | 1.08 | 0.03 | 88 | 1012.6 |
| 20260901112003 | 69 | 200 | 0.0 | 0.0 | 0.00 | 1.08 | 0.03 | 87 | 1012.7 |
| 20260901111501 | 69 | 200 | 0.0 | 0.0 | 0.00 | 1.08 | 0.03 | 87 | 1012.6 |
| 20260901111017 | 69 | 200 | 0.0 | 0.0 | 0.00 | 1.08 | 0.03 | 88 | 1012.6 |
| 20260901110458 | 69 | 200 | 0.0 | 0.0 | 0.00 | 1.08 | 0.03 | 88 | 1012.5 |
| 20260901110018 | 69 | 200 | 0.0 | 0.0 | 0.00 | 1.08 | 0.03 | 88 | 1012.5 |
| 20260901105455 | 69 | 200 | 0.0 | 0.0 | 0.00 | 1.08 | 0.03 | 88 | 1012.5 |
| 20260901104955 | 69 | 200 | 0.0 | 0.0 | 0.00 | 1.08 | 0.03 | 88 | 1012.5 |
| 20260901104456 | 69 | 200 | 0.0 | 0.0 | 0.00 | 1.08 | 0.03 | 88 | 1012.4 |
| 20260901103955 | 69 | 200 | 0.0 | 0.0 | 0.00 | 1.08 | 0.03 | 88 | 1012.4 |
| 20260901103455 | 69 | 200 | 0.0 | 0.0 | 0.00 | 1.08 | 0.03 | 88 | 1012.4 |
| 20260901102953 | 69 | 200 | 0.0 | 0.0 | 0.00 | 1.08 | 0.03 | 88 | 1012.3 |
| 20260901102447 | 69 | 200 | 0.0 | 0.0 | 0.00 | 1.08 | 0.03 | 88 | 1012.0 |
| 20260901101947 | 69 | 200 | 0.0 | 0.0 | 0.00 | 1.08 | 0.03 | 88 | 1012.0 |
| 20260901101447 | 69 | 200 | 0.0 | 0.0 | 0.00 | 1.08 | 0.03 | 88 | 1012.0 |
| 20260901100946 | 69 | 200 | 0.0 | 0.0 | 0.00 | 1.08 | 0.03 | 88 | 1012.1 |
| 20260901100445 | 69 | 200 | 0.0 | 0.0 | 0.00 | 1.08 | 0.03 | 88 | 1012.3 |
| 20260901100018 | 69 | 200 | 0.0 | 0.0 | 0.00 | 1.08 | 0.03 | 88 | 1012.1 |
| 20260901095445 | 69 | 200 | 0.0 | 0.0 | 0.00 | 1.08 | 0.03 | 88 | 1012.0 |
| 20260901094943 | 69 | 200 | 0.0 | 0.0 | 0.00 | 1.08 | 0.03 | 88 | 1012.1 |
| 20260901094443 | 69 | 200 | 0.0 | 0.0 | 0.00 | 1.08 | 0.03 | 88 | 1012.0 |
| 20260901094016 | 69 | 200 | 0.0 | 0.0 | 0.00 | 1.08 | 0.03 | 88 | 1012.1 |
| 20260901093437 | 69 | 200 | 0.0 | 0.0 | 0.00 | 1.08 | 0.03 | 88 | 1012.3 |
| 20260901092937 | 69 | 200 | 0.0 | 0.0 | 0.00 | 1.08 | 0.03 | 88 | 1012.1 |
| 20260901092437 | 69 | 200 | 0.0 | 0.0 | 0.00 | 1.08 | 0.03 | 88 | 1012.1 |
| 20260901091937 | 69 | 200 | 0.0 | 0.0 | 0.00 | 1.08 | 0.03 | 88 | 1012.3 |
| 20260901091437 | 69 | 200 | 0.0 | 0.0 | 0.00 | 1.08 | 0.03 | 88 | 1012.4 |
| 20260901091018 | 69 | 200 | 0.0 | 0.0 | 0.00 | 1.08 | 0.03 | 88 | 1012.3 |
| 20260901090437 | 69 | 200 | 0.0 | 0.0 | 0.00 | 1.08 | 0.03 | 88 | 1012.3 |
| 20260901085937 | 69 | 200 | 0.0 | 0.0 | 0.00 | 1.08 | 0.03 | 88 | 1012.1 |
| 20260901085437 | 69 | 200 | 0.0 | 0.0 | 0.00 | 1.08 | 0.03 | 88 | 1012.0 |
| 20260901085015 | 69 | 200 | 0.0 | 0.0 | 0.00 | 1.08 | 0.03 | 87 | 1012.1 |
| 20260901084433 | 69 | 200 | 0.0 | 0.0 | 0.00 | 1.08 | 0.03 | 87 | 1012.4 |
| 20260901083933 | 69 | 200 | 0.0 | 0.0 | 0.00 | 1.08 | 0.03 | 87 | 1012.0 |
| 20260901083431 | 69 | 200 | 0.0 | 0.0 | 0.00 | 1.08 | 0.03 | 87 | 1012.0 |
| 20260901082931 | 69 | 200 | 0.0 | 0.0 | 0.00 | 1.08 | 0.03 | 87 | 1011.9 |
| 20260901082431 | 69 | 200 | 0.0 | 0.0 | 0.00 | 1.08 | 0.03 | 87 | 1012.0 |
| 20260901081930 | 69 | 200 | 0.0 | 0.0 | 0.00 | 1.08 | 0.03 | 87 | 1011.9 |
| 20260901081431 | 69 | 200 | 0.0 | 0.0 | 0.00 | 1.08 | 0.03 | 87 | 1011.9 |
| 20260901080930 | 69 | 200 | 0.0 | 0.0 | 0.00 | 1.08 | 0.03 | 87 | 1012.0 |
| 20260901080430 | 69 | 200 | 0.0 | 0.0 | 0.00 | 1.08 | 0.03 | 87 | 1012.1 |
| 20260901075930 | 69 | 200 | 0.0 | 0.0 | 0.00 | 1.08 | 0.03 | 87 | 1012.1 |
| 20260901075430 | 69 | 200 | 0.0 | 0.0 | 0.00 | 1.08 | 0.03 | 87 | 1012.1 |
| 20260901075016 | 69 | 201 | 0.0 | 1.0 | 0.00 | 1.08 | 0.03 | 87 | 1012.3 |
| 20260901074430 | 69 | 202 | 0.0 | 1.0 | 0.00 | 1.08 | 0.03 | 87 | 1012.4 |
| 20260901073925 | 69 | 203 | 0.0 | 0.0 | 0.00 | 1.08 | 0.03 | 87 | 1012.5 |
| 20260901073418 | 69 | 203 | 0.0 | 0.0 | 0.00 | 1.08 | 0.03 | 87 | 1012.7 |
| 20260901072913 | 69 | 203 | 0.0 | 0.0 | 0.00 | 1.08 | 0.03 | 87 | 1012.7 |
| 20260901072413 | 69 | 203 | 0.0 | 1.0 | 0.00 | 1.08 | 0.03 | 87 | 1012.8 |
| 20260901071911 | 69 | 203 | 0.0 | 1.0 | 0.00 | 1.08 | 0.03 | 87 | 1012.7 |
| 20260901071411 | 69 | 203 | 0.0 | 0.0 | 0.00 | 1.08 | 0.03 | 87 | 1012.7 |
| 20260901070911 | 69 | 207 | 0.0 | 0.0 | 0.00 | 1.08 | 0.03 | 87 | 1012.7 |
| 20260901070413 | 69 | 207 | 0.0 | 0.0 | 0.00 | 1.08 | 0.03 | 87 | 1012.8 |
| 20260901065911 | 69 | 207 | 0.0 | 0.0 | 0.00 | 1.08 | 0.03 | 87 | 1013.0 |
| 20260901065411 | 69 | 207 | 0.0 | 0.0 | 0.00 | 1.08 | 0.03 | 87 | 1013.1 |
| 20260901064913 | 69 | 207 | 0.0 | 0.0 | 0.00 | 1.08 | 0.03 | 87 | 1013.3 |
| 20260901064409 | 69 | 207 | 0.0 | 0.0 | 0.00 | 1.08 | 0.03 | 87 | 1013.3 |
| 20260901063906 | 69 | 207 | 0.0 | 0.0 | 0.00 | 1.08 | 0.03 | 87 | 1013.3 |
| 20260901063408 | 69 | 207 | 0.0 | 0.0 | 0.00 | 1.08 | 0.03 | 87 | 1013.5 |
| 20260901062907 | 69 | 207 | 0.0 | 0.0 | 0.00 | 1.08 | 0.03 | 87 | 1013.6 |
| 20260901062404 | 69 | 207 | 0.0 | 0.0 | 0.00 | 1.08 | 0.03 | 87 | 1013.7 |
| 20260901061902 | 69 | 207 | 0.0 | 0.0 | 0.00 | 1.08 | 0.03 | 87 | 1013.8 |
| 20260901061404 | 69 | 207 | 0.0 | 0.0 | 0.00 | 1.08 | 0.03 | 87 | 1013.8 |
| 20260901060955 | 69 | 207 | 0.0 | 0.0 | 0.00 | 1.08 | 0.03 | 87 | 1013.9 |
| 20260901060404 | 69 | 207 | 0.0 | 0.0 | 0.00 | 1.08 | 0.03 | 87 | 1013.9 |
| 20260901055902 | 69 | 207 | 0.0 | 0.0 | 0.01 | 1.08 | 0.03 | 87 | 1013.9 |
| 20260901055402 | 69 | 207 | 0.0 | 0.0 | 0.02 | 1.08 | 0.03 | 87 | 1013.9 |
| 20260901054902 | 69 | 207 | 0.0 | 0.0 | 0.02 | 1.08 | 0.03 | 87 | 1013.9 |
| 20260901054403 | 69 | 207 | 0.0 | 0.0 | 0.03 | 1.08 | 0.03 | 87 | 1013.9 |
| 20260901053903 | 69 | 207 | 0.0 | 0.0 | 0.03 | 1.08 | 0.03 | 87 | 1013.9 |
| 20260901053402 | 69 | 207 | 0.0 | 0.0 | 0.03 | 1.08 | 0.03 | 87 | 1013.9 |
| 20260901052903 | 69 | 207 | 0.0 | 0.0 | 0.03 | 1.08 | 0.03 | 87 | 1014.1 |
| 20260901052402 | 69 | 207 | 0.0 | 0.0 | 0.03 | 1.08 | 0.03 | 87 | 1014.1 |
| 20260901051902 | 69 | 207 | 0.0 | 0.0 | 0.03 | 1.08 | 0.03 | 87 | 1014.3 |
| 20260901051402 | 69 | 207 | 0.0 | 0.0 | 0.03 | 1.08 | 0.03 | 87 | 1014.3 |
| 20260901050902 | 68 | 207 | 0.0 | 0.0 | 0.03 | 1.08 | 0.03 | 87 | 1014.3 |
| 20260901050402 | 68 | 207 | 0.0 | 0.0 | 0.03 | 1.08 | 0.03 | 87 | 1014.5 |
| 20260901045902 | 68 | 207 | 0.0 | 0.0 | 0.02 | 1.07 | 0.02 | 88 | 1014.5 |
| 20260901045403 | 68 | 207 | 0.0 | 0.0 | 0.01 | 1.06 | 0.01 | 88 | 1014.5 |
| 20260901044902 | 68 | 207 | 0.0 | 0.0 | 0.01 | 1.06 | 0.00 | 88 | 1014.5 |
| 20260901044419 | 68 | 207 | 0.0 | 0.0 | 0.00 | 1.05 | 0.00 | 88 | 1014.5 |
| 20260901043946 | 68 | 207 | 0.0 | 0.0 | 0.00 | 1.05 | 0.00 | 88 | 1014.5 |
| 20260901043403 | 68 | 207 | 0.0 | 0.0 | 0.00 | 1.05 | 0.00 | 88 | 1014.4 |
| 20260901042902 | 68 | 207 | 0.0 | 0.0 | 0.00 | 1.05 | 0.00 | 88 | 1014.4 |
| 20260901042403 | 68 | 207 | 0.0 | 0.0 | 0.00 | 1.05 | 0.00 | 88 | 1014.4 |
| 20260901041943 | 68 | 207 | 0.0 | 0.0 | 0.00 | 1.05 | 0.00 | 88 | 1014.4 |
| 20260901041402 | 69 | 207 | 0.0 | 0.0 | 0.00 | 1.05 | 0.00 | 88 | 1014.5 |
| 20260901040902 | 69 | 207 | 0.0 | 0.0 | 0.00 | 1.05 | 0.00 | 88 | 1014.4 |
| 20260901040402 | 69 | 207 | 0.0 | 0.0 | 0.00 | 1.05 | 0.00 | 88 | 1014.4 |
| 20260901035902 | 69 | 207 | 0.0 | 0.0 | 0.00 | 1.05 | 1.05 | 88 | 1014.5 |
| 20260901035403 | 69 | 207 | 0.0 | 0.0 | 0.00 | 1.05 | 1.05 | 88 | 1014.4 |
| 20260901034903 | 69 | 207 | 0.0 | 0.0 | 0.00 | 1.05 | 1.05 | 88 | 1014.4 |
| 20260901034409 | 69 | 208 | 0.0 | 0.0 | 0.00 | 1.05 | 1.05 | 88 | 1014.5 |
| 20260901033902 | 69 | 207 | 0.0 | 0.0 | 0.00 | 1.05 | 1.05 | 88 | 1014.7 |
| 20260901033402 | 69 | 208 | 0.0 | 0.0 | 0.00 | 1.05 | 1.05 | 88 | 1014.7 |
| 20260901032903 | 69 | 207 | 0.0 | 0.0 | 0.00 | 1.05 | 1.05 | 88 | 1014.7 |
| 20260901032402 | 69 | 208 | 0.0 | 0.0 | 0.00 | 1.05 | 1.05 | 88 | 1014.9 |
| 20260901031902 | 69 | 207 | 0.0 | 0.0 | 0.00 | 1.05 | 1.05 | 88 | 1015.0 |
| 20260901031403 | 69 | 207 | 0.0 | 0.0 | 0.00 | 1.05 | 1.05 | 88 | 1015.1 |
| 20260901030903 | 69 | 208 | 0.0 | 0.0 | 0.00 | 1.05 | 1.05 | 88 | 1015.2 |
| 20260901030403 | 69 | 208 | 0.0 | 0.0 | 0.00 | 1.05 | 1.05 | 88 | 1015.2 |
| 20260901025904 | 69 | 208 | 0.0 | 0.0 | 0.00 | 1.05 | 1.05 | 88 | 1015.3 |
| 20260901025402 | 69 | 207 | 0.0 | 0.0 | 0.00 | 1.05 | 1.05 | 88 | 1015.2 |
| 20260901024904 | 69 | 207 | 0.0 | 0.0 | 0.00 | 1.05 | 1.05 | 88 | 1015.2 |
| 20260901024402 | 69 | 207 | 0.0 | 0.0 | 0.00 | 1.05 | 1.05 | 88 | 1015.3 |
| 20260901023904 | 69 | 207 | 0.0 | 0.0 | 0.00 | 1.05 | 1.05 | 88 | 1015.4 |
| 20260901023403 | 69 | 208 | 0.0 | 0.0 | 0.00 | 1.05 | 1.05 | 88 | 1015.4 |
| 20260901022935 | 69 | 207 | 0.0 | 0.0 | 0.00 | 1.05 | 1.05 | 88 | 1015.5 |
| 20260901022402 | 69 | 207 | 0.0 | 0.0 | 0.00 | 1.05 | 1.05 | 88 | 1015.5 |
| 20260901021904 | 69 | 208 | 0.0 | 0.0 | 0.00 | 1.05 | 1.05 | 88 | 1015.5 |
| 20260901021402 | 69 | 207 | 0.0 | 0.0 | 0.00 | 1.05 | 1.05 | 88 | 1015.4 |
| 20260901020904 | 69 | 208 | 0.0 | 0.0 | 0.00 | 1.05 | 1.05 | 88 | 1015.5 |
| 20260901020403 | 69 | 208 | 0.0 | 0.0 | 0.00 | 1.05 | 1.05 | 88 | 1015.5 |
| 20260901015903 | 69 | 207 | 0.0 | 0.0 | 0.00 | 1.05 | 1.05 | 88 | 1015.5 |
| 20260901015403 | 69 | 207 | 0.0 | 0.0 | 0.00 | 1.05 | 1.05 | 88 | 1015.6 |
| 20260901014902 | 69 | 207 | 0.0 | 0.0 | 0.00 | 1.05 | 1.05 | 88 | 1015.6 |
| 20260901014411 | 69 | 207 | 0.0 | 0.0 | 0.00 | 1.05 | 1.05 | 88 | 1015.6 |
| 20260901013929 | 69 | 207 | 0.0 | 0.0 | 0.00 | 1.05 | 1.05 | 88 | 1015.5 |
| 20260901013402 | 69 | 207 | 0.0 | 0.0 | 0.00 | 1.05 | 1.05 | 88 | 1015.5 |
| 20260901012902 | 69 | 207 | 0.0 | 0.0 | 0.00 | 1.05 | 1.05 | 88 | 1015.6 |
| 20260901012403 | 69 | 207 | 0.0 | 0.0 | 0.00 | 1.05 | 1.05 | 88 | 1015.7 |
| 20260901011902 | 69 | 207 | 0.0 | 0.0 | 0.00 | 1.05 | 1.05 | 88 | 1015.7 |
| 20260901011404 | 69 | 207 | 0.0 | 0.0 | 0.00 | 1.05 | 1.05 | 88 | 1015.6 |
| 20260901010932 | 69 | 207 | 0.0 | 0.0 | 0.00 | 1.05 | 1.05 | 88 | 1015.5 |
| 20260901010402 | 69 | 207 | 0.0 | 0.0 | 0.00 | 1.05 | 1.05 | 88 | 1015.4 |
| 20260901005903 | 69 | 207 | 0.0 | 0.0 | 0.01 | 1.05 | 1.05 | 88 | 1015.4 |
| 20260901005402 | 69 | 207 | 0.0 | 0.0 | 0.01 | 1.05 | 1.05 | 88 | 1015.4 |
| 20260901004903 | 69 | 207 | 0.0 | 0.0 | 0.03 | 1.05 | 1.05 | 88 | 1015.2 |
| 20260901004402 | 69 | 207 | 0.0 | 0.0 | 0.04 | 1.05 | 1.05 | 88 | 1015.4 |
| 20260901003902 | 69 | 207 | 0.0 | 0.0 | 0.04 | 1.05 | 1.05 | 88 | 1015.3 |
| 20260901003403 | 69 | 207 | 0.0 | 0.0 | 0.04 | 1.05 | 1.05 | 88 | 1015.2 |
| 20260901002903 | 69 | 207 | 0.0 | 0.0 | 0.04 | 1.05 | 1.05 | 88 | 1015.2 |
| 20260901002402 | 69 | 207 | 0.0 | 0.0 | 0.04 | 1.05 | 1.05 | 88 | 1015.2 |
| 20260901001923 | 69 | 207 | 0.0 | 0.0 | 0.04 | 1.05 | 1.05 | 88 | 1015.1 |
| 20260901001403 | 69 | 207 | 0.0 | 0.0 | 0.04 | 1.05 | 1.05 | 88 | 1015.2 |
| 20260901000902 | 69 | 207 | 0.0 | 0.0 | 0.04 | 1.05 | 1.05 | 88 | 1015.2 |
| 20260901000405 | 69 | 207 | 0.0 | 0.0 | 0.04 | 1.05 | 1.05 | 88 | 1015.3 |
| 20260831235903 | 69 | 207 | 0.0 | 0.0 | 0.03 | 1.04 | 1.04 | 88 | 1015.3 |
| 20260831235404 | 69 | 207 | 0.0 | 0.0 | 0.03 | 1.04 | 1.04 | 88 | 1015.3 |
| 20260831234924 | 69 | 207 | 0.0 | 0.0 | 0.01 | 1.02 | 1.02 | 88 | 1015.3 |
| 20260831234401 | 69 | 207 | 0.0 | 0.0 | 0.00 | 1.01 | 1.01 | 88 | 1015.3 |
| 20260831233859 | 69 | 207 | 0.0 | 0.0 | 0.00 | 1.01 | 1.01 | 88 | 1015.3 |
| 20260831233357 | 69 | 207 | 0.0 | 0.0 | 0.00 | 1.01 | 1.01 | 89 | 1015.3 |
| 20260831232855 | 69 | 207 | 0.0 | 0.0 | 0.00 | 1.01 | 1.01 | 88 | 1015.4 |
| 20260831232352 | 69 | 207 | 0.0 | 0.0 | 0.00 | 1.01 | 1.01 | 89 | 1015.5 |
| 20260831231922 | 69 | 207 | 0.0 | 0.0 | 0.00 | 1.01 | 1.01 | 89 | 1015.4 |
| 20260831231349 | 69 | 207 | 0.0 | 0.0 | 0.00 | 1.01 | 1.01 | 88 | 1015.4 |
| 20260831230923 | 69 | 207 | 0.0 | 0.0 | 0.00 | 1.01 | 1.01 | 89 | 1015.5 |
| 20260831230346 | 69 | 207 | 0.0 | 0.0 | 0.00 | 1.01 | 1.01 | 89 | 1015.5 |
| 20260831225844 | 69 | 207 | 0.0 | 0.0 | 0.00 | 1.01 | 1.01 | 88 | 1015.5 |
| 20260831225339 | 69 | 207 | 0.0 | 0.0 | 0.00 | 1.01 | 1.01 | 89 | 1015.5 |
| 20260831224832 | 69 | 207 | 0.0 | 0.0 | 0.00 | 1.01 | 1.01 | 89 | 1015.5 |
| 20260831224333 | 69 | 207 | 0.0 | 0.0 | 0.00 | 1.01 | 1.01 | 89 | 1015.5 |
| 20260831223831 | 69 | 207 | 0.0 | 0.0 | 0.00 | 1.01 | 1.01 | 89 | 1015.6 |
| 20260831223332 | 69 | 207 | 0.0 | 0.0 | 0.00 | 1.01 | 1.01 | 89 | 1015.6 |
| 20260831222831 | 69 | 207 | 0.0 | 0.0 | 0.00 | 1.01 | 1.01 | 89 | 1015.6 |
| 20260831222332 | 69 | 207 | 0.0 | 0.0 | 0.00 | 1.01 | 1.01 | 88 | 1015.6 |
| 20260831221830 | 69 | 207 | 0.0 | 0.0 | 0.00 | 1.01 | 1.01 | 88 | 1015.6 |
| 20260831221330 | 69 | 207 | 0.0 | 0.0 | 0.00 | 1.01 | 1.01 | 89 | 1015.6 |
| 20260831220831 | 69 | 207 | 0.0 | 0.0 | 0.00 | 1.01 | 1.01 | 89 | 1015.6 |
| 20260831220331 | 69 | 207 | 0.0 | 0.0 | 0.00 | 1.01 | 1.01 | 89 | 1015.6 |
| 20260831215830 | 69 | 207 | 0.0 | 0.0 | 0.00 | 1.01 | 1.01 | 89 | 1015.6 |
| 20260831215330 | 69 | 207 | 0.0 | 0.0 | 0.01 | 1.01 | 1.01 | 89 | 1015.6 |
| 20260831214831 | 69 | 207 | 0.0 | 0.0 | 0.01 | 1.01 | 1.01 | 89 | 1015.6 |
| 20260831214331 | 69 | 207 | 0.0 | 0.0 | 0.01 | 1.01 | 1.01 | 89 | 1015.6 |
| 20260831213922 | 69 | 207 | 0.0 | 0.0 | 0.01 | 1.01 | 1.01 | 89 | 1015.7 |
| 20260831213330 | 69 | 207 | 0.0 | 0.0 | 0.01 | 1.01 | 1.01 | 89 | 1015.7 |
| 20260831212922 | 69 | 207 | 0.0 | 0.0 | 0.01 | 1.01 | 1.01 | 89 | 1015.7 |
| 20260831212329 | 69 | 207 | 0.0 | 0.0 | 0.01 | 1.01 | 1.01 | 89 | 1015.7 |
| 20260831211822 | 69 | 207 | 0.0 | 0.0 | 0.01 | 1.01 | 1.01 | 89 | 1015.7 |
| 20260831211316 | 69 | 207 | 0.0 | 0.0 | 0.01 | 1.01 | 1.01 | 89 | 1015.7 |
| 20260831210810 | 69 | 207 | 0.0 | 0.0 | 0.02 | 1.01 | 1.01 | 89 | 1015.8 |
| 20260831210352 | 69 | 207 | 0.0 | 0.0 | 0.02 | 1.01 | 1.01 | 89 | 1015.8 |
| 20260831205919 | 69 | 207 | 0.0 | 0.0 | 0.03 | 1.01 | 1.01 | 89 | 1015.8 |
| 20260831205307 | 69 | 207 | 0.0 | 0.0 | 0.03 | 1.00 | 1.00 | 89 | 1015.8 |
| 20260831204807 | 69 | 207 | 0.0 | 0.0 | 0.04 | 1.00 | 1.00 | 89 | 1015.8 |
| 20260831204306 | 69 | 207 | 0.0 | 0.0 | 0.05 | 1.00 | 1.00 | 89 | 1015.7 |
| 20260831203806 | 69 | 207 | 0.0 | 0.0 | 0.06 | 1.00 | 1.00 | 89 | 1015.7 |
| 20260831203303 | 69 | 207 | 0.0 | 0.0 | 0.06 | 1.00 | 1.00 | 89 | 1015.6 |
| 20260831202803 | 69 | 207 | 0.0 | 0.0 | 0.07 | 1.00 | 1.00 | 89 | 1015.6 |
| 20260831202306 | 69 | 207 | 0.0 | 0.0 | 0.09 | 1.00 | 1.00 | 89 | 1015.6 |
| 20260831201802 | 68 | 207 | 0.0 | 0.0 | 0.10 | 1.00 | 1.00 | 89 | 1015.6 |
| 20260831201303 | 68 | 207 | 0.0 | 0.0 | 0.11 | 1.00 | 1.00 | 90 | 1015.7 |
| 20260831200803 | 69 | 207 | 0.0 | 0.0 | 0.11 | 0.99 | 0.99 | 90 | 1015.8 |
| 20260831200302 | 69 | 207 | 0.0 | 0.0 | 0.11 | 0.99 | 0.99 | 89 | 1015.9 |
| 20260831195803 | 69 | 207 | 0.0 | 0.0 | 0.11 | 0.98 | 0.98 | 89 | 1015.9 |
| 20260831195306 | 69 | 207 | 0.0 | 0.0 | 0.11 | 0.97 | 0.96 | 89 | 1015.9 |
| 20260831194802 | 69 | 207 | 0.0 | 0.0 | 0.10 | 0.96 | 0.96 | 89 | 1016.0 |
| 20260831194302 | 69 | 207 | 0.0 | 0.0 | 0.10 | 0.95 | 0.94 | 89 | 1016.2 |
| 20260831193802 | 69 | 207 | 0.0 | 0.0 | 0.09 | 0.94 | 0.94 | 89 | 1016.2 |
| 20260831193302 | 69 | 207 | 0.0 | 0.0 | 0.09 | 0.94 | 0.94 | 89 | 1016.3 |
| 20260831192802 | 69 | 207 | 0.0 | 0.0 | 0.08 | 0.93 | 0.92 | 89 | 1016.4 |
| 20260831192305 | 69 | 207 | 0.0 | 0.0 | 0.06 | 0.91 | 0.91 | 90 | 1016.4 |
| 20260831191921 | 69 | 207 | 0.0 | 0.0 | 0.05 | 0.90 | 0.90 | 89 | 1016.4 |
| 20260831191302 | 69 | 207 | 0.0 | 0.0 | 0.06 | 0.89 | 0.89 | 89 | 1016.5 |
| 20260831190802 | 69 | 207 | 0.0 | 0.0 | 0.09 | 0.88 | 0.88 | 89 | 1016.5 |
| 20260831190302 | 69 | 207 | 0.0 | 0.0 | 0.13 | 0.88 | 0.88 | 89 | 1016.6 |
| 20260831185803 | 69 | 207 | 0.0 | 0.0 | 0.19 | 0.87 | 0.87 | 89 | 1016.6 |
| 20260831185302 | 69 | 207 | 0.0 | 0.0 | 0.23 | 0.86 | 0.86 | 89 | 1016.6 |
| 20260831184802 | 69 | 207 | 0.0 | 0.0 | 0.25 | 0.86 | 0.86 | 90 | 1016.7 |
| 20260831184302 | 69 | 207 | 0.0 | 0.0 | 0.26 | 0.85 | 0.85 | 90 | 1016.7 |
| 20260831183802 | 69 | 207 | 0.0 | 0.0 | 0.27 | 0.85 | 0.85 | 90 | 1016.7 |
| 20260831183302 | 69 | 207 | 0.0 | 0.0 | 0.29 | 0.85 | 0.85 | 89 | 1016.7 |
| 20260831182802 | 69 | 207 | 0.0 | 0.0 | 0.35 | 0.85 | 0.85 | 89 | 1016.7 |
| 20260831182305 | 69 | 207 | 0.0 | 0.0 | 0.39 | 0.85 | 0.85 | 89 | 1016.6 |
| 20260831181803 | 69 | 208 | 0.0 | 0.0 | 0.39 | 0.85 | 0.84 | 90 | 1016.5 |
| 20260831181302 | 68 | 208 | 0.0 | 0.0 | 0.37 | 0.83 | 0.82 | 90 | 1016.6 |
| 20260831180803 | 68 | 207 | 0.0 | 0.0 | 0.34 | 0.79 | 0.79 | 90 | 1016.7 |
| 20260831180303 | 68 | 207 | 0.0 | 0.0 | 0.30 | 0.75 | 0.74 | 90 | 1016.7 |
| 20260831175802 | 68 | 207 | 0.0 | 0.0 | 0.23 | 0.68 | 0.67 | 90 | 1017.0 |
| 20260831175305 | 68 | 207 | 0.0 | 0.0 | 0.18 | 0.63 | 0.62 | 90 | 1017.0 |
| 20260831174803 | 68 | 207 | 0.0 | 0.0 | 0.16 | 0.61 | 0.60 | 90 | 1017.0 |
| 20260831174303 | 68 | 208 | 0.0 | 0.0 | 0.15 | 0.59 | 0.59 | 90 | 1016.9 |
| 20260831173803 | 69 | 210 | 0.0 | 0.0 | 0.14 | 0.58 | 0.58 | 90 | 1016.9 |
| 20260831173302 | 69 | 211 | 0.0 | 0.0 | 0.12 | 0.56 | 0.55 | 90 | 1017.0 |
| 20260831172802 | 69 | 211 | 0.0 | 0.0 | 0.06 | 0.50 | 0.50 | 90 | 1017.0 |
| 20260831172306 | 69 | 211 | 0.0 | 0.0 | 0.02 | 0.46 | 0.46 | 90 | 1017.1 |
| 20260831171803 | 69 | 211 | 0.0 | 0.0 | 0.02 | 0.47 | 0.46 | 90 | 1017.0 |
| 20260831171302 | 69 | 211 | 0.0 | 1.0 | 0.02 | 0.47 | 0.45 | 90 | 1017.2 |
| 20260831170803 | 69 | 211 | 0.0 | 1.0 | 0.01 | 0.46 | 0.45 | 90 | 1017.1 |
| 20260831170303 | 69 | 213 | 0.0 | 0.0 | 0.01 | 0.47 | 0.45 | 90 | 1017.2 |
| 20260831165802 | 69 | 213 | 0.0 | 0.0 | 0.01 | 0.47 | 0.45 | 90 | 1017.3 |
| 20260831165305 | 69 | 213 | 0.0 | 0.0 | 0.01 | 0.48 | 0.45 | 90 | 1017.3 |
| 20260831164803 | 69 | 213 | 0.0 | 0.0 | 0.01 | 0.49 | 0.45 | 90 | 1017.4 |
| 20260831164302 | 69 | 214 | 0.0 | 0.0 | 0.00 | 0.50 | 0.44 | 90 | 1017.4 |
| 20260831163804 | 69 | 214 | 0.0 | 0.0 | 0.01 | 0.50 | 0.44 | 90 | 1017.4 |
| 20260831163302 | 69 | 214 | 0.0 | 0.0 | 0.01 | 0.51 | 0.44 | 90 | 1017.5 |
| 20260831162805 | 69 | 215 | 0.0 | 0.0 | 0.01 | 0.51 | 0.44 | 90 | 1017.5 |
| 20260831162305 | 69 | 215 | 0.0 | 0.0 | 0.01 | 0.51 | 0.44 | 89 | 1017.6 |
| 20260831161921 | 69 | 215 | 0.0 | 0.0 | 0.01 | 0.51 | 0.44 | 89 | 1017.8 |
| 20260831161302 | 69 | 215 | 0.0 | 0.0 | 0.02 | 0.51 | 0.44 | 89 | 1017.8 |
| 20260831160918 | 69 | 215 | 0.0 | 0.0 | 0.02 | 0.51 | 0.44 | 89 | 1017.7 |
| 20260831160302 | 69 | 215 | 0.0 | 0.0 | 0.02 | 0.51 | 0.44 | 90 | 1017.8 |
| 20260831155755 | 69 | 215 | 0.0 | 0.0 | 0.02 | 0.51 | 0.44 | 89 | 1017.7 |
| 20260831155256 | 69 | 215 | 0.0 | 0.0 | 0.03 | 0.51 | 0.44 | 89 | 1017.8 |
| 20260831154756 | 69 | 215 | 0.0 | 0.0 | 0.04 | 0.51 | 0.44 | 89 | 1017.8 |
| 20260831154256 | 69 | 215 | 0.0 | 0.0 | 0.05 | 0.51 | 0.44 | 89 | 1017.7 |
| 20260831153753 | 68 | 215 | 0.0 | 0.0 | 0.05 | 0.51 | 0.43 | 89 | 1017.7 |
| 20260831153252 | 68 | 215 | 0.0 | 0.0 | 0.06 | 0.51 | 0.43 | 89 | 1017.8 |
| 20260831152921 | 68 | 215 | 0.0 | 0.0 | 0.06 | 0.51 | 0.43 | 89 | 1017.8 |
| 20260831152250 | 68 | 215 | 0.0 | 0.0 | 0.06 | 0.51 | 0.43 | 89 | 1017.9 |
| 20260831151749 | 68 | 215 | 0.0 | 0.0 | 0.06 | 0.51 | 0.43 | 89 | 1017.9 |
| 20260831151248 | 68 | 215 | 0.0 | 0.0 | 0.06 | 0.50 | 0.42 | 89 | 1018.0 |
| 20260831150746 | 68 | 215 | 0.0 | 0.0 | 0.07 | 0.50 | 0.42 | 89 | 1018.1 |
| 20260831150244 | 68 | 215 | 0.0 | 0.0 | 0.08 | 0.50 | 0.42 | 89 | 1018.1 |
| 20260831145742 | 68 | 215 | 0.0 | 0.0 | 0.10 | 0.50 | 0.42 | 89 | 1018.1 |
| 20260831145242 | 67 | 215 | 0.0 | 0.0 | 0.09 | 0.49 | 0.41 | 89 | 1018.0 |
| 20260831144742 | 67 | 215 | 0.0 | 0.0 | 0.08 | 0.48 | 0.40 | 89 | 1017.8 |
| 20260831144240 | 67 | 215 | 0.0 | 0.0 | 0.08 | 0.47 | 0.38 | 90 | 1017.9 |
| 20260831143737 | 67 | 215 | 0.0 | 0.0 | 0.08 | 0.46 | 0.38 | 90 | 1017.8 |
| 20260831143235 | 67 | 215 | 0.0 | 0.0 | 0.07 | 0.45 | 0.37 | 90 | 1017.8 |
| 20260831142734 | 67 | 215 | 0.0 | 0.0 | 0.08 | 0.45 | 0.37 | 89 | 1018.1 |
| 20260831142231 | 67 | 215 | 0.0 | 0.0 | 0.09 | 0.45 | 0.37 | 89 | 1018.1 |
| 20260831141731 | 67 | 215 | 0.0 | 0.0 | 0.10 | 0.45 | 0.37 | 89 | 1018.0 |
| 20260831141227 | 67 | 215 | 0.0 | 0.0 | 0.10 | 0.44 | 0.36 | 90 | 1018.0 |
| 20260831140722 | 67 | 215 | 0.0 | 0.0 | 0.12 | 0.43 | 0.35 | 90 | 1017.9 |
| 20260831140214 | 67 | 215 | 0.0 | 0.0 | 0.12 | 0.42 | 0.33 | 90 | 1017.6 |
| 20260831135209 | 67 | 215 | 0.0 | 0.0 | 0.16 | 0.40 | 0.32 | 90 | 1017.5 |
| 20260831134915 | 67 | 215 | 0.0 | 0.0 | 0.21 | 0.40 | 0.32 | 90 | 1017.4 |
| 20260831134407 | 67 | 215 | 0.0 | 0.0 | 0.23 | 0.39 | 0.31 | 90 | 1017.5 |